This is the latest recevied weather packets stored in our database for station/object KD9CCP. If no packets are shown the sender has not sent any weather packets the latest 10 day(s).
| Time | Temp. | Humidity | Pressure | Rain* | Wind** | Luminosity | Snow |
|---|---|---|---|---|---|---|---|
| 1778103420 | 4.44° C | 59% | 1014.6 hPa | 0 mm | - | 36 W/m² | - |
| 1778103116 | 4.44° C | 61% | 1014.6 hPa | 0 mm | - | 32 W/m² | - |
| 1778102814 | 4.44° C | 59% | 1014.4 hPa | 0 mm | - | 34 W/m² | - |
| 1778102508 | 4.44° C | 59% | 1014.3 hPa | 0 mm | - | 34 W/m² | - |
| 1778102204 | 4.44° C | 59% | 1014.5 hPa | 0 mm | - | 29 W/m² | - |
| 1778101901 | 4.44° C | 64% | 1014.3 hPa | 0 mm | - | 28 W/m² | - |
| 1778101598 | 4.44° C | 64% | 1014.5 hPa | 0 mm | - | 30 W/m² | - |
| 1778101295 | 4.44° C | 63% | 1014.5 hPa | 0 mm | - | 38 W/m² | - |
| 1778100992 | 4.44° C | 58% | 1014.5 hPa | 0 mm | - | 48 W/m² | - |
| 1778100686 | 4.44° C | 64% | 1014.6 hPa | 0 mm | - | 49 W/m² | - |
| 1778100385 | 4.44° C | 60% | 1014.5 hPa | 0 mm | - | 49 W/m² | - |
| 1778100081 | 4.44° C | 61% | 1014.6 hPa | 0 mm | - | 56 W/m² | - |
| 1778099780 | 4.44° C | 58% | 1014.7 hPa | 0 mm | - | 55 W/m² | - |
| 1778099476 | 4.44° C | 63% | 1014.6 hPa | 0 mm | - | 47 W/m² | - |
| 1778099174 | 4.44° C | 65% | 1014.7 hPa | 0 mm | - | 44 W/m² | - |
| 1778098870 | 4.44° C | 60% | 1014.6 hPa | 0 mm | - | 42 W/m² | - |
| 1778098567 | 4.44° C | 61% | 1014.6 hPa | 0 mm | - | 51 W/m² | - |
| 1778098264 | 4.44° C | 61% | 1014.8 hPa | 0 mm | - | 58 W/m² | - |
| 1778097960 | 4.44° C | 61% | 1014.5 hPa | 0 mm | - | 62 W/m² | - |
| 1778097657 | 4.44° C | 60% | 1014.6 hPa | 0 mm | - | 68 W/m² | - |
| 1778097353 | 4.44° C | 62% | 1014.5 hPa | 0 mm | - | 57 W/m² | - |
| 1778097050 | 4.44° C | 60% | 1014.7 hPa | 0 mm | - | 54 W/m² | - |
| 1778096748 | 4.44° C | 58% | 1014.7 hPa | 0 mm | - | 69 W/m² | - |
| 1778096444 | 4.44° C | 58% | 1014.5 hPa | 0 mm | - | 77 W/m² | - |
| 1778096142 | 4.44° C | 60% | 1014.6 hPa | 0 mm | - | 76 W/m² | - |
* Rain latest hour (hover to see other rain measurements)
** Current wind speed in m/s (hover to see current wind gust speed)